Погода в Сарыгёле

Турция     38°14′12″N   28°41′57″E
темп.,
°C
ветер,
м/с
пор.,
м/с
влажн.,
%
обл.,
%
осадки,
мм/ч
давл.,
гПа
погр.,
м
25 февраля, чт
чт2500:00+4зсз349547 0.0 1027137
03:00+3ссз119451 0.0 102722
06:00+2с12900 0.0 102723
09:00+4св12740 0.0 1028131
12:00+9всв46500 0.0 1027956
15:00+13св67400 0.0 10251325
18:00+12св58480 0.0 1026665
21:00+7всв35620 0.0 1027113
26 февраля, пт
пт2600:00+5в22680 0.0 102825
03:00+4в23720 0.0 102828
06:00+3в22770 0.0 102724
09:00+5вюв22670 0.0 102682
12:00+11всв23460 0.0 1025697
15:00+14вюв12370 0.0 1022792
18:00+14зюз11460 0.0 102154
21:00+8сз22600 0.0 102222
27 февраля, сб
сб2700:00+6зсз11720 0.0 102122
03:00+5в01710 0.0 102122
06:00+4вюв01770 0.0 102022
09:00+8вюв11620 0.0 101923
12:00+13всв11380 0.0 1018457
15:00+17сз21300 0.0 1015767
18:00+14сз34500 0.0 1015285
21:00+9зсз22670 0.0 101623
28 февраля, вс
вс2800:00+7сз12740 0.0 101722
03:00+6зсз22850 0.0 101722
06:00+4зсз22860 0.0 101722
09:00+6сз22750 0.0 1018130
12:00+11ссз34560 0.0 1018962
15:00+12ссз445422 0.0 10171211
18:00+8с677296 0.6 1018873
21:00+6с486798 1.6 10211174
1 марта, пн
пн100:00+4ссв476499 0.1 1023571
03:00+2с237162 0.1 102453
06:000ссз33760 0.0 102444
09:00+1ссз23670 0.0 1025288
12:00+6ссв68410 0.0 10241489
15:00+9с1011360 0.0 10222021
18:00+7с8104010 0.0 10231650
21:00+3ссз47615 0.0 1026162